Regional Weather Roundup
Issued by NWS

Home | Current Version | Previous Version | Text Only | Print | Product List | Glossary Off
Versions: 1 2 3 4 5 6 7 8 9 10 11 12 13 14 15 16 17 18 19 20 21 22 23 24 25 26 27 28 29 30 31 32 33 34 35 36 37 38 39 40 41 42 43 44 45 46 47 48 49 50

000
ASUS45 KTFX 062010
RWRMT
MONTANA REGIONAL WEATHER ROUNDUP
NATIONAL WEATHER SERVICE GREAT FALLS MT
100 PM MST TUE DEC 06 2016

NOTE: "FAIR" INDICATES FEW OR NO CLOUDS BELOW 12000 FEET WITH NO
SIGNIFICANT WEATHER AND/OR OBSTRUCTIONS TO VISIBILITY.

MTZ001>007-043-062100-
WEST OF THE DIVIDE

CITY           SKY/WX    TMP DP  RH WIND       PRES   REMARKS
KALISPELL      SUNNY     16   3  56 N22G28    30.02S WCI  -2
MISSOULA       PTSUNNY   20   7  57 E17       29.97S WCI   5
BUTTE          CLOUDY     9   1  70 SE16      29.81F WCI  -8
MULLAN PASS    LGT SNOW  11   8  88 CALM      29.76S FOG
ANACONDA         N/A     10   5  79 N7        29.86F WCI   0
DEER LODGE       N/A     12   3  67 NW7       29.91F WCI   2
EUREKA           N/A     14   7  73 E5        30.08F
HAMILTON         N/A     21  12  68 N3        29.90F
LIBBY            N/A     21  16  79 CALM      30.04S
PLAINS           N/A     23  11  60 CALM      30.01F
RONAN            N/A     25  14  62 CALM      30.00S
$$

MTZ008-052>055-062100-
SOUTHWEST MONTANA

CITY           SKY/WX    TMP DP  RH WIND       PRES   REMARKS
BOZEMAN        CLOUDY    13   5  70 N5        29.92F
DILLON         CLOUDY    13   4  67 VRB3      29.82F
W YELLOWSTONE  CLOUDY    10  -2  56 CALM      29.74F
ENNIS          PTSUNNY   12   5  73 CALM      29.87F
THREE FORKS      N/A     14 -40   7 N7        29.94F WCI   4
TWIN BRIDGES     N/A     13   0  56 N10       29.85F WCI   0
$$

MTZ009-010-012-014-046-048-049-054-062100-
EAST SLOPES AND CENTRAL MONTANA

CITY           SKY/WX    TMP DP  RH WIND       PRES   REMARKS
CUT BANK       MOSUNNY   -1  -8  72 NW18      30.13F WCI -22
GREAT FALLS    CLOUDY     2  -6  69 N5        30.14F
HELENA         CLOUDY     9  -2  61 W13       30.04F WCI  -7
CHOTEAU          N/A      1  -6  71 MISG      30.14S
CONRAD           N/A      2  -6  69 NW12      30.15S WCI -14
$$

MTZ011-013-016-021-045-047-050-051-062100-
NORTH CENTRAL MONTANA

CITY           SKY/WX    TMP DP  RH WIND       PRES   REMARKS
HAVRE          CLOUDY     2  -6  69 NW15      30.24F WCI -17
LEWISTOWN      CLOUDY     0  -4  83 W8        30.04F WCI -14
N BAR RANCH      N/A      9  -4  56 NW20      29.98F WCI -11
CHINOOK          N/A      1  -9  60 W20G25    30.23F WCI -20
$$

MTZ017>020-022>027-061-062-062100-
NORTHEAST MONTANA

CITY           SKY/WX    TMP DP  RH WIND       PRES   REMARKS
GLASGOW        MOSUNNY    5  -5  63 NW24G33   30.13F WCI -17
JORDAN           N/A      7  -3  64 NW22G31   30.12F WCI -14
SIDNEY         FLURRIES   4  -3  73 NW21G30   30.08R WCI -17
WOLF POINT     CLOUDY     5  -5  63 NW22      30.15S WCI -16
PLENTYWOOD       N/A      1  -2  85 NW29G36   29.99F VSB 3/4 WCI -24
POPLAR           N/A      5  -6  61 NW20      30.11S WCI -15
SCOBEY           N/A      2 -10  57 NW20      30.03F WCI -19
$$

MTZ028>42-056>058-062100-
SOUTHCENTRAL AND SOUTHEAST MONTANA

CITY           SKY/WX    TMP DP  RH WIND       PRES   REMARKS
BAKER          CLOUDY     4  -4  69 W22G32    30.02F HAZE    WCI -18
BILLINGS       FLURRIES  12   6  77 NE6       30.03F WCI   3
LIVINGSTON     CLOUDY    10   4  76 NE9       29.92F WCI  -3
MILES CITY     MOSUNNY    9  -4  55 NW21      30.11F WCI -11
BIG TIMBER     CLOUDY    10   5  79 E6        29.97F WCI   1
FORSYTH          N/A      9  -2  61 NW8       30.12F WCI  -4
LAUREL           N/A     14   1  56 N2        30.00F
ROUNDUP          N/A     14  -2  49 NE5       29.96F
$$

REGIONAL REPORTS...DAKOTAS

CITY           SKY/WX    TMP DP  RH WIND       PRES   REMARKS
WILLISTON      MIX PCPN   6  -2  69 NW25      30.04S WCI -16
MINOT          SNOW       9   5  84 W37G48    29.83R VSB 1/4 WCI -16
DICKINSON      MIX PCPN   3  -3  76 NW32G38   29.92S VSB 1/2 WCI -22
BISMARCK       CLOUDY     8   4  83 NW25G39   29.89R BLWGSNOWWCI -13
GRAND FORKS    SNOW      25  22  88 NW30G38   29.42R VSB 1/2 WCI   8
FARGO          SNOW      21  17  84 W39G49    29.48R VSB 1/4 WCI   1
BUFFALO SD       N/A      8  -1  66 NW30      29.89F WCI -15
RAPID CITY     SUNNY     19   2  47 N24G30    29.95S WCI   2
$$

REGIONAL REPORTS...WYOMING/IDAHO/WASHINGTON

CITY           SKY/WX    TMP DP  RH WIND       PRES   REMARKS
GILLETTE       CLOUDY     7   1  76 NW12      29.96F WCI  -8
SHERIDAN       CLOUDY    11   2  67 W7        30.00F WCI   0
BUFFALO WY     CLOUDY     9   2  73 CALM      29.92F
CODY           SUNNY     17   7  64 N8        29.88F WCI   7
YELLOWSTONE LA   N/A      8  -5  55 VRB3      29.69F
IDAHO FALLS    CLOUDY    18   3  52 CALM      29.81F
SALMON         CLOUDY    12   9  85 CALM      29.89F
BOISE          CLOUDY    25  20  81 S6        29.93R WCI  18
SPOKANE        PTSUNNY   29  13  51 N12       29.99S WCI  19
$$

REGIONAL REPORTS...ALBERTA

CITY           SKY/WX    TMP DP  RH WIND       PRES   REMARKS
$$

REGIONAL REPORTS...SASKATCHEWAN

CITY           SKY/WX    TMP DP  RH WIND       PRES   REMARKS
$$



USA.gov is the U.S. government's official web portal to all federal, state and local government web resources and services.